Showing default

HAWK-C, 43799

Orbit data source: Space-Track

HAWK-C, 43799 is a payload satellite owned by HawkEye 360 (US) in SSO that was launched on Mon, 03 Dec 2018 UTC via an FALCON 9 launch vehicle from the Air Force Western Test Range (AFWTR). Payload-class satellites include a variety of spacecraft equipped with specific instruments for various scientific and technological missions. These include communications satellites like Starlink; space stations such as the ISS; scientific satellites like the Hubble; Earth observation satellites from companies like Planet Labs, Umbra, and HawkEye 360; GPS; miniature CubeSats for education and research; and military/defense satellites.

Loading next visibility...
Identifier
43799, 2018-099AT
Orbit
SSO
Country
Flag of USUS
Related business
Manufacturer
UTIAS-SFL
Mission
Operational Commercial Sigint
Bus & Motor
NEMO-V1, Unknown motor
Mass
12.75 kg wet, 12 kg dry
Launch date (UTC)
2018-12-03 (7 years ago)
Launch vehicle
FALCON 9
Launch site
Air Force Western Test Range (AFWTR)
Object type
Payload
Rocket body
Debris
Shape & HBR
Box + 2 Pan, 1.0 m
Radar Cross Section
0.348 m², Medium (>0.1 m² and < 1m²)

Expand to show TLE details & history
Last TLE update: 9 hours ago

TLE from 9 hours ago
0 HAWK-C
1 43799U 18099AT  26034.57608283  .00010260  00000-0  39435-3 0  9999
2 43799  97.4099  88.8913 0043598  39.5965 320.8444 15.25711466393520
Epoch: 2026-02-03T13:49Z
TLE epoch observation values (Epoch: 2026-02-03T13:49:33.556Z)
Latitude
0.00002°
Longitude
107.74644°
Altitude
468.58 km
Speed
7.645 km/s
True Right ascension
05h 55m 33s
True Declination
0° 00' 00"
Sunlit
Object was in full shadow at epoch
Visualization orbit readout
Latitude
Unknown
Longitude
Unknown
Altitude
Unknown
Speed
Unknown
Apparent Right ascension
Unknown
Apparent Declination
Unknown
Sunlit
N/A
Visualization observer readout
Local Sidereal Time
00:48:32
Azimuth
Unknown
Elevation
Unknown
Doppler factor
Unknown
Orbital elements
Apogee altitude
515.533 km
Perigee altitude
455.684 km
Semi-major axis
6,863.745 km
Eccentricity
0.00436
Inclination
97.4099°
RAAN
88.8913°
Arg. of periapsis
39.5965°
True anomaly
320.5276°
Mean anomaly
320.8444°
Eccentric anomaly
320.68614°
Mean motion
3.81682 °/min
Orbital period
94.32 mins
BSTAR
0.00039435
Loading maneuver chart data...
Computing Atmospheric mass density...
Loading historical data...
Loading historical data...
Loading historical data...
Loading historical data...
Loading historical data...
Loading historical data...
Loading historical data...

Documentation

Showing up to 5 results
|